Weather History for K2C8 - February, 2014

Change the Weather History Date:

Sunday, February 23, 2014

  Actual Average (KGAF) Record (KGAF)
Temperature  
Mean Temperature 4 °F -  
Max Temperature 10 °F 25 °F 60 °F (1958)
Min Temperature -2 °F 6 °F -21 °F (1965)
Degree Days  
Heating Degree Days 61    
Moisture  
Dew Point -3 °F    
Average Humidity 70    
Maximum Humidity 78    
Minimum Humidity 62    
Precipitation  
Precipitation 0.00 in - - ()
Sea Level Pressure  
Sea Level Pressure 30.22 in    
Wind  
Wind Speed 13 mph (WNW)    
Max Wind Speed 21 mph    
Max Gust Speed 28 mph    
Visibility 10 miles    
Events      
Averages and records for this station are not official NWS values.
T = Trace of Precipitation, MM = Missing Value Source: NWS Daily Summary

Daily Weather History Graph

Daily Weather History Graph

Search for Another Location

Airport or City:

Trip Planner

Search our weather history database for the weather conditions in past years. The results will help you decide how hot, cold, wet, or windy it might be!

Date:

Astronomy

Feb. 23, 2014 Rise Set
Actual Time 7:23 AM CST 6:04 PM CST
Civil Twilight 6:51 AM CST 6:36 PM CST
Nautical Twilight 6:15 AM CST 7:13 PM CST
Astronomical Twilight 5:38 AM CST 7:49 PM CST
Moon 2:38 AM CST (2/23) 11:52 AM CST (2/23)
Length of Visible Light 11h 44m
Length of Day
10h 40m
Last Quarter, 38% of the Moon is Illuminated
Feb 23
Last Quarter
Mar 1
New
Mar 8
First Quarter
Mar 16
Full
Mar 23
Last Quarter

Hourly Weather History & Observations

Time (CST) Temp. Windchill Dew Point Humidity Pressure Visibility Wind Dir Wind Speed Gust Speed Precip Events Conditions
12:15 AM 5.0 °F -10.0 °F -2.2 °F 72% 30.10 in 10.0 mi WNW 10.4 mph - N/A   Clear
12:35 AM 1.4 °F -14.5 °F -4.0 °F 78% 30.10 in 10.0 mi WNW 10.4 mph - N/A   Clear
12:55 AM 5.0 °F -10.0 °F -2.2 °F 72% 30.11 in 10.0 mi WNW 10.4 mph 17.3 mph N/A   Clear
1:15 AM 5.0 °F -13.0 °F -2.2 °F 72% 30.11 in 10.0 mi NW 15.0 mph - N/A   Clear
1:35 AM 6.8 °F -9.3 °F -2.2 °F 67% 30.11 in 10.0 mi WNW 12.7 mph - N/A   Partly Cloudy
1:55 AM 6.8 °F -6.9 °F -2.2 °F 67% 30.12 in 10.0 mi West 9.2 mph 18.4 mph N/A   Scattered Clouds
2:15 AM 3.2 °F -11.3 °F -4.0 °F 72% 30.12 in 10.0 mi WNW 9.2 mph - N/A   Partly Cloudy
2:35 AM 3.2 °F -12.2 °F -2.2 °F 78% 30.12 in 10.0 mi WNW 10.4 mph - N/A   Partly Cloudy
2:55 AM 5.0 °F -10.0 °F -2.2 °F 72% 30.12 in 10.0 mi West 10.4 mph - N/A   Mostly Cloudy
3:15 AM 5.0 °F -10.0 °F -2.2 °F 72% 30.12 in 10.0 mi WNW 10.4 mph - N/A   Overcast
3:35 AM 6.8 °F -8.6 °F -0.4 °F 72% 30.13 in 10.0 mi WNW 11.5 mph - N/A   Overcast
3:55 AM 6.8 °F -8.6 °F -0.4 °F 72% 30.13 in 10.0 mi WNW 11.5 mph - N/A   Mostly Cloudy
4:15 AM 6.8 °F -8.6 °F -0.4 °F 72% 30.13 in 10.0 mi WNW 11.5 mph - N/A   Scattered Clouds
4:35 AM 6.8 °F -10.0 °F -0.4 °F 72% 30.14 in 10.0 mi NW 13.8 mph - N/A   Scattered Clouds
4:55 AM 6.8 °F -11.3 °F -0.4 °F 72% 30.15 in 10.0 mi NW 16.1 mph 19.6 mph N/A   Clear
5:15 AM 8.6 °F -8.3 °F -0.4 °F 67% 30.15 in 10.0 mi WNW 15.0 mph 21.9 mph N/A   Partly Cloudy
5:35 AM 6.8 °F -10.7 °F -0.4 °F 72% 30.16 in 10.0 mi NW 15.0 mph 20.7 mph N/A   Partly Cloudy
5:55 AM 6.8 °F -11.3 °F -0.4 °F 72% 30.16 in 10.0 mi NW 16.1 mph 23.0 mph N/A   Clear
6:15 AM 6.8 °F -10.7 °F -0.4 °F 72% 30.16 in 10.0 mi NW 15.0 mph 23.0 mph N/A   Clear
6:35 AM 6.8 °F -10.0 °F -0.4 °F 72% 30.16 in 10.0 mi NW 13.8 mph 18.4 mph N/A   Clear
6:55 AM 6.8 °F -9.3 °F -2.2 °F 67% 30.17 in 10.0 mi WNW 12.7 mph 19.6 mph N/A   Clear
7:15 AM 5.0 °F -12.3 °F -2.2 °F 72% 30.17 in 10.0 mi WNW 13.8 mph - N/A   Clear
7:35 AM 3.2 °F -14.6 °F -2.2 °F 78% 30.18 in 10.0 mi WNW 13.8 mph - N/A   Clear
7:55 AM 3.2 °F -13.9 °F -2.2 °F 78% 30.19 in 10.0 mi WNW 12.7 mph - N/A   Clear
8:15 AM 3.2 °F -13.1 °F -2.2 °F 78% 30.19 in 10.0 mi WNW 11.5 mph - N/A   Clear
8:35 AM 5.0 °F -12.3 °F -2.2 °F 72% 30.20 in 10.0 mi NW 13.8 mph 21.9 mph N/A   Clear
8:55 AM 5.0 °F -11.6 °F -2.2 °F 72% 30.20 in 10.0 mi WNW 12.7 mph - N/A   Clear
9:15 AM 5.0 °F -11.6 °F -2.2 °F 72% 30.21 in 10.0 mi WNW 12.7 mph 20.7 mph N/A   Clear
9:35 AM 5.0 °F -14.7 °F -2.2 °F 72% 30.22 in 10.0 mi NW 18.4 mph 24.2 mph N/A   Clear
9:55 AM 6.8 °F -12.9 °F -2.2 °F 67% 30.22 in 10.0 mi NW 19.6 mph 25.3 mph N/A   Clear
10:15 AM 6.8 °F -11.8 °F -2.2 °F 67% 30.23 in 10.0 mi NW 17.3 mph 27.6 mph N/A   Clear
10:35 AM 6.8 °F -12.4 °F -2.2 °F 67% 30.24 in 10.0 mi NW 18.4 mph 23.0 mph N/A   Clear
10:55 AM 6.8 °F -13.4 °F -2.2 °F 67% 30.24 in 10.0 mi NW 20.7 mph 25.3 mph N/A   Clear
11:15 AM 8.6 °F -9.5 °F -0.4 °F 67% 30.24 in 10.0 mi NW 17.3 mph - N/A   Clear
11:35 AM 8.6 °F -10.5 °F -0.4 °F 67% 30.24 in 10.0 mi NW 19.6 mph 24.2 mph N/A   Clear
11:55 AM 8.6 °F -8.3 °F -0.4 °F 67% 30.24 in 10.0 mi NW 15.0 mph 23.0 mph N/A   Clear
12:15 PM 10.4 °F -3.3 °F -0.4 °F 62% 30.24 in 10.0 mi WNW 10.4 mph - N/A   Clear
12:35 PM 10.4 °F -6.0 °F -0.4 °F 62% 30.24 in 10.0 mi WNW 15.0 mph - N/A   Clear
12:55 PM 8.6 °F -9.5 °F -0.4 °F 67% 30.25 in 10.0 mi WNW 17.3 mph - N/A   Clear
1:15 PM 8.6 °F -8.9 °F -0.4 °F 67% 30.25 in 10.0 mi West 16.1 mph - N/A   Clear
1:35 PM 8.6 °F -7.0 °F -0.4 °F 67% 30.25 in 10.0 mi West 12.7 mph - N/A   Clear
1:55 PM 10.4 °F -4.8 °F -0.4 °F 62% 30.25 in 10.0 mi WNW 12.7 mph - N/A   Clear
2:15 PM 10.4 °F -5.4 °F -0.4 °F 62% 30.25 in 10.0 mi WNW 13.8 mph - N/A   Clear
2:35 PM 10.4 °F -6.6 °F -0.4 °F 62% 30.25 in 10.0 mi WNW 16.1 mph - N/A   Clear
2:55 PM 8.6 °F -8.3 °F -0.4 °F 67% 30.25 in 10.0 mi WNW 15.0 mph - N/A   Clear
3:15 PM 8.6 °F -8.9 °F -0.4 °F 67% 30.25 in 10.0 mi WNW 16.1 mph - N/A   Clear
3:35 PM 8.6 °F -10.0 °F -0.4 °F 67% 30.26 in 10.0 mi West 18.4 mph 23.0 mph N/A   Clear
3:55 PM 8.6 °F -9.5 °F -0.4 °F 67% 30.26 in 8.0 mi West 17.3 mph - N/A   Clear
4:15 PM 8.6 °F -8.9 °F -0.4 °F 67% 30.26 in 10.0 mi WNW 16.1 mph - N/A   Clear
4:35 PM 6.8 °F -12.4 °F -2.2 °F 67% 30.26 in 10.0 mi West 18.4 mph - N/A   Clear
4:55 PM 6.8 °F -11.8 °F -2.2 °F 67% 30.27 in 10.0 mi WNW 17.3 mph 24.2 mph N/A   Clear
5:15 PM 6.8 °F -10.0 °F -2.2 °F 67% 30.27 in 10.0 mi WNW 13.8 mph - N/A   Clear
5:35 PM 5.0 °F -13.0 °F -2.2 °F 72% 30.27 in 10.0 mi WNW 15.0 mph - N/A   Clear
5:55 PM 5.0 °F -12.3 °F -4.0 °F 66% 30.28 in 10.0 mi WNW 13.8 mph - N/A   Clear
6:15 PM 3.2 °F -14.6 °F -4.0 °F 72% 30.28 in 10.0 mi WNW 13.8 mph - N/A   Clear
6:35 PM 1.4 °F -16.1 °F -4.0 °F 78% 30.29 in 10.0 mi WNW 12.7 mph - N/A   Clear
6:55 PM 1.4 °F -15.3 °F -5.8 °F 72% 30.29 in 10.0 mi WNW 11.5 mph - N/A   Clear
7:15 PM 1.4 °F -16.9 °F -5.8 °F 72% 30.29 in 10.0 mi WNW 13.8 mph 19.6 mph N/A   Clear
7:35 PM 1.4 °F -17.6 °F -5.8 °F 72% 30.29 in 10.0 mi WNW 15.0 mph - N/A   Clear
7:55 PM -0.4 °F -19.9 °F -7.6 °F 72% 30.29 in 10.0 mi WNW 15.0 mph - N/A   Clear
8:15 PM -0.4 °F -19.2 °F -7.6 °F 72% 30.29 in 10.0 mi WNW 13.8 mph - N/A   Clear
8:35 PM -0.4 °F -19.2 °F -7.6 °F 72% 30.29 in 10.0 mi WNW 13.8 mph - N/A   Clear
8:55 PM -0.4 °F -19.2 °F -7.6 °F 72% 30.29 in 10.0 mi WNW 13.8 mph - N/A   Clear
9:15 PM -0.4 °F -20.5 °F -7.6 °F 72% 30.30 in 10.0 mi WNW 16.1 mph - N/A   Clear
9:35 PM -0.4 °F -19.9 °F -7.6 °F 72% 30.30 in 10.0 mi WNW 15.0 mph - N/A   Clear
9:55 PM -0.4 °F -18.4 °F -9.4 °F 66% 30.30 in 10.0 mi WNW 12.7 mph - N/A   Clear
10:15 PM -0.4 °F -18.4 °F -9.4 °F 66% 30.30 in 10.0 mi WNW 12.7 mph - N/A   Clear
10:35 PM -2.2 °F -19.9 °F -9.4 °F 71% 30.30 in 10.0 mi WNW 11.5 mph - N/A   Clear
10:55 PM -2.2 °F -18.9 °F -9.4 °F 71% 30.31 in 10.0 mi NW 10.4 mph - N/A   Clear
11:15 PM -2.2 °F -19.9 °F -9.4 °F 71% 30.30 in 10.0 mi WNW 11.5 mph - N/A   Clear
11:35 PM -2.2 °F -19.9 °F -11.2 °F 66% 30.30 in 10.0 mi WNW 11.5 mph - N/A   Clear
11:55 PM -2.2 °F -20.7 °F -11.2 °F 66% 30.31 in 10.0 mi WNW 12.7 mph - N/A   Clear